CZ-3C DEB, 40178

Orbit data source: Space-Track

CZ-3C DEB, 40178 is space debris in HEO originally from a launch on Sun, 31 Oct 2010 UTC launched from the Xichang Space Center, China (XSC). Debris objects in space refer to the collection of defunct objects orbiting the Earth. Examples of debris include non-operational satellites, rocket bodies, and fragments generated from explosions, collisions, or faulty payload assembly.

Loading next visibility...
Identifier
40178, 2010-057AG
Orbit
HEO
Country
Flag of CNCN / PRC
Related business
Manufacturer
CALT
Mission
Spacecraft
Bus & Motor
Unknown
Mass
Unknown
Launch date (UTC)
2010-10-31 (16 years ago)
Launch vehicle
Unknown
Launch site
Xichang Space Center, China (XSC)
Object type
Payload
Rocket body
Debris
Shape & HBR
Unknown shape, 0.1 m
Radar Cross Section
Medium (>0.1 m² and <1 m²)

Expand to show TLE details & history
Last TLE update: 17 hours ago

TLE from 17 hours ago
0 CZ-3C DEB
1 40178U 10057AG  26171.37201573  .00000035  00000-0  10258-1 0  9993
2 40178  19.2421 288.9672 7224297 215.1102  65.7552  2.09805065 32244
Epoch: 2026-06-20T08:55Z
TLE epoch observation values (Epoch: 2026-06-20T08:55:42.159Z)
Latitude
0.36671°
Longitude
-112.43599°
Altitude
24,434.997 km
Speed
3.226 km/s
True Right ascension
19h 20m 18s
True Declination
0° 21' 58"
Sunlit
Object was in daylight at epoch
Visualization orbit readout
Latitude
Unknown
Longitude
Unknown
Altitude
Unknown
Speed
Unknown
Apparent Right ascension
Unknown
Apparent Declination
Unknown
Sunlit
N/A
Visualization observer readout
Local Sidereal Time
13:09:50
Azimuth
Unknown
Elevation
Unknown
Doppler factor
Unknown
Orbital elements
Apogee altitude
38,024.205 km
Perigee altitude
777.32 km
Semi-major axis
25,778.899 km
Eccentricity
0.72243
Inclination
19.2421°
RAAN
288.9672°
Arg. of periapsis
215.1102°
True anomaly
146.11835°
Mean anomaly
65.7552°
Eccentric anomaly
105.61891°
Mean motion
0.52438 °/min
Orbital period
686.52 mins
BSTAR
0.010258
Loading maneuver chart data...
Computing Atmospheric mass density...
Loading historical data...
Loading historical data...
Loading historical data...
Loading historical data...
Loading historical data...
Loading historical data...
Loading historical data...

Documentation

Showing up to 5 results
|